Weather History for KCIN - November, 2012

Change the Weather History Date:

Saturday, November 24, 2012

  Actual Average Record
Temperature  
Mean Temperature 26 °F -  
Max Temperature 39 °F 42 °F 69 °F (2011)
Min Temperature 12 °F 21 °F 0 °F (1950)
Degree Days  
Heating Degree Days 40    
Moisture  
Dew Point 15 °F    
Average Humidity 61    
Maximum Humidity 86    
Minimum Humidity 39    
Precipitation  
Precipitation 0.00 in - - ()
Sea Level Pressure  
Sea Level Pressure 30.09 in    
Wind  
Wind Speed 7 mph (South)    
Max Wind Speed 21 mph    
Max Gust Speed 26 mph    
Visibility 10 miles    
Events      
Averages and records for this station are not official NWS values.
T = Trace of Precipitation, MM = Missing Value Source: NWS Daily Summary

Daily Weather History Graph

Daily Weather History Graph

Search for Another Location

Airport or City:

Trip Planner

Search our weather history database for the weather conditions in past years. The results will help you decide how hot, cold, wet, or windy it might be!

Date:

Astronomy

Nov. 24, 2012 Rise Set
Actual Time 7:20 AM CST 4:51 PM CST
Civil Twilight 6:49 AM CST 5:21 PM CST
Nautical Twilight 6:15 AM CST 5:56 PM CST
Astronomical Twilight 5:41 AM CST 6:29 PM CST
Moon 2:38 PM CST (11/24) 3:35 AM CST (11/24)
Length of Visible Light 10h 32m
Length of Day
9h 30m
Waxing Gibbous, 87% of the Moon is Illuminated
Nov 24
Waxing Gibbous
Nov 28
Full
Dec 6
Last Quarter
Dec 13
New
Dec 19
First Quarter

Hourly Weather History & Observations

Time (CST) Temp. Windchill Dew Point Humidity Pressure Visibility Wind Dir Wind Speed Gust Speed Precip Events Conditions
12:15 AM 14.0 °F 2.9 °F 8.6 °F 79% 30.37 in 10.0 mi WNW 8.1 mph - N/A   Clear
12:35 AM 14.0 °F 2.0 °F 8.6 °F 79% 30.37 in 10.0 mi West 9.2 mph - N/A   Clear
12:55 AM 14.0 °F 5.1 °F 6.8 °F 73% 30.35 in 10.0 mi WNW 5.8 mph - N/A   Clear
1:15 AM 14.0 °F 8.2 °F 6.8 °F 73% 30.35 in 10.0 mi WNW 3.5 mph - N/A   Clear
1:35 AM 12.2 °F - 6.8 °F 79% 30.34 in 10.0 mi Calm Calm - N/A   Clear
1:55 AM 12.2 °F 4.3 °F 6.8 °F 79% 30.34 in 10.0 mi West 4.6 mph - N/A   Clear
2:15 AM 12.2 °F - 6.8 °F 79% 30.34 in 10.0 mi Calm Calm - N/A   Clear
2:35 AM 14.0 °F - 8.6 °F 79% 30.33 in 10.0 mi Calm Calm - N/A   Clear
2:55 AM 14.0 °F - 8.6 °F 79% 30.32 in 10.0 mi Calm Calm - N/A   Clear
3:15 AM 12.2 °F - 6.8 °F 79% 30.33 in 10.0 mi Calm Calm - N/A   Clear
3:55 AM 14.0 °F - 8.6 °F 79% 30.32 in 10.0 mi Calm Calm - N/A   Clear
4:15 AM 14.0 °F - 10.4 °F 86% 30.31 in 10.0 mi Calm Calm - N/A   Clear
4:35 AM 14.0 °F - 10.4 °F 86% 30.29 in 10.0 mi Calm Calm - N/A   Clear
4:55 AM 14.0 °F - 8.6 °F 79% 30.28 in 10.0 mi Calm Calm - N/A   Clear
5:15 AM 15.8 °F - 10.4 °F 79% 30.29 in 10.0 mi Calm Calm - N/A   Scattered Clouds
5:35 AM 17.6 °F - 12.2 °F 79% 30.30 in 10.0 mi Calm Calm - N/A   Scattered Clouds
5:55 AM 17.6 °F - 12.2 °F 79% 30.28 in 10.0 mi Calm Calm - N/A   Partly Cloudy
6:15 AM 17.6 °F 12.3 °F 12.2 °F 79% 30.28 in 10.0 mi ESE 3.5 mph - N/A   Partly Cloudy
6:35 AM 17.6 °F - 12.2 °F 79% 30.28 in 10.0 mi Calm Calm - N/A   Mostly Cloudy
6:55 AM 19.4 °F 12.8 °F 12.2 °F 74% 30.29 in 10.0 mi South 4.6 mph - N/A   Mostly Cloudy
7:15 AM 19.4 °F 12.8 °F 12.2 °F 74% 30.28 in 10.0 mi South 4.6 mph - N/A   Mostly Cloudy
7:35 AM 19.4 °F 10.4 °F 12.2 °F 74% 30.27 in 10.0 mi SE 6.9 mph - N/A   Mostly Cloudy
7:55 AM 19.4 °F 10.4 °F 12.2 °F 74% 30.26 in 10.0 mi SE 6.9 mph - N/A   Mostly Cloudy
8:15 AM 19.4 °F 9.5 °F 12.2 °F 74% 30.25 in 10.0 mi SSE 8.1 mph - N/A   Partly Cloudy
8:35 AM 21.2 °F 11.7 °F 12.2 °F 68% 30.24 in 10.0 mi SSE 8.1 mph - N/A   Clear
8:55 AM 21.2 °F 10.1 °F 14.0 °F 74% 30.22 in 10.0 mi SSE 10.4 mph - N/A   Clear
9:15 AM 23.0 °F 11.1 °F 14.0 °F 68% 30.21 in 10.0 mi SSE 12.7 mph - N/A   Clear
9:35 AM 23.0 °F 12.4 °F 14.0 °F 68% 30.22 in 10.0 mi SE 10.4 mph - N/A   Scattered Clouds
9:55 AM 24.8 °F 15.3 °F 14.0 °F 64% 30.21 in 10.0 mi SSE 9.2 mph - N/A   Partly Cloudy
10:15 AM 26.6 °F 16.2 °F 15.8 °F 64% 30.20 in 10.0 mi South 11.5 mph - N/A   Clear
10:35 AM 28.4 °F 18.5 °F 15.8 °F 59% 30.19 in 10.0 mi SSE 11.5 mph - N/A   Clear
10:55 AM 30.2 °F 20.8 °F 15.8 °F 55% 30.18 in 10.0 mi South 11.5 mph - N/A   Clear
11:15 AM 32.0 °F 23.6 °F 17.6 °F 55% 30.16 in 10.0 mi SSE 10.4 mph - N/A   Clear
11:35 AM 32.0 °F 21.6 °F 15.8 °F 51% 30.13 in 10.0 mi South 15.0 mph - N/A   Clear
11:55 AM 33.8 °F 23.5 °F 15.8 °F 48% 30.11 in 10.0 mi South 16.1 mph - N/A   Clear
12:15 PM 35.6 °F 26.6 °F 15.8 °F 44% 30.09 in 10.0 mi South 13.8 mph - N/A   Clear
12:35 PM 35.6 °F 26.6 °F 15.8 °F 44% 30.06 in 10.0 mi SSE 13.8 mph 19.6 mph N/A   Clear
12:55 PM 35.6 °F 26.2 °F 15.8 °F 44% 30.04 in 10.0 mi SSE 15.0 mph 21.9 mph N/A   Clear
1:15 PM 37.4 °F 28.2 °F 15.8 °F 41% 30.02 in 10.0 mi SSE 16.1 mph - N/A   Clear
1:35 PM 37.4 °F 28.2 °F 15.8 °F 41% 30.00 in 10.0 mi SSE 16.1 mph 23.0 mph N/A   Clear
1:55 PM 37.4 °F 27.2 °F 15.8 °F 41% 29.97 in 10.0 mi SSE 19.6 mph - N/A   Clear
2:15 PM 37.4 °F 26.9 °F 15.8 °F 41% 29.95 in 10.0 mi SSE 20.7 mph - N/A   Clear
2:35 PM 39.2 °F 29.6 °F 15.8 °F 39% 29.94 in 10.0 mi SSE 19.6 mph - N/A   Clear
2:55 PM 39.2 °F 29.6 °F 15.8 °F 39% 29.93 in 10.0 mi South 19.6 mph 26.5 mph N/A   Clear
3:15 PM 39.2 °F 30.5 °F 17.6 °F 42% 29.93 in 10.0 mi South 16.1 mph 23.0 mph N/A   Clear
3:35 PM 39.2 °F 30.5 °F 17.6 °F 42% 29.93 in 10.0 mi South 16.1 mph 23.0 mph N/A   Clear
3:55 PM 39.2 °F 30.2 °F 15.8 °F 39% 29.92 in 10.0 mi South 17.3 mph 24.2 mph N/A   Clear
4:15 PM 37.4 °F 28.5 °F 15.8 °F 41% 29.92 in 10.0 mi South 15.0 mph - N/A   Clear
4:35 PM 35.6 °F 26.2 °F 15.8 °F 44% 29.92 in 10.0 mi South 15.0 mph - N/A   Clear
4:55 PM 35.6 °F 28.0 °F 15.8 °F 44% 29.90 in 10.0 mi SSE 10.4 mph - N/A   Clear
5:15 PM 35.6 °F 27.5 °F 17.6 °F 48% 29.91 in 10.0 mi South 11.5 mph - N/A   Clear
5:35 PM 33.8 °F 27.7 °F 17.6 °F 52% 29.91 in 10.0 mi South 6.9 mph - N/A   Clear
5:55 PM 33.8 °F 25.8 °F 17.6 °F 52% 29.89 in 10.0 mi SSE 10.4 mph - N/A   Clear
6:15 PM 33.8 °F 25.8 °F 17.6 °F 52% 29.89 in 10.0 mi South 10.4 mph - N/A   Unknown
6:35 PM 33.8 °F 25.3 °F 17.6 °F 52% 29.88 in 10.0 mi South 11.5 mph - N/A   Scattered Clouds
6:55 PM 33.8 °F 25.8 °F 17.6 °F 52% 29.88 in 10.0 mi South 10.4 mph - N/A   Mostly Cloudy
7:15 PM 33.8 °F 26.4 °F 17.6 °F 52% 29.88 in 10.0 mi South 9.2 mph - N/A   Scattered Clouds
7:35 PM 33.8 °F 27.7 °F 17.6 °F 52% 29.88 in 10.0 mi South 6.9 mph - N/A   Partly Cloudy
7:55 PM 33.8 °F 25.8 °F 17.6 °F 52% 29.86 in 10.0 mi South 10.4 mph - N/A   Unknown
8:15 PM 32.0 °F 25.6 °F 17.6 °F 55% 29.87 in 10.0 mi South 6.9 mph - N/A   Partly Cloudy
8:35 PM 32.0 °F 25.6 °F 19.4 °F 60% 29.86 in 10.0 mi South 6.9 mph - N/A   Scattered Clouds
8:55 PM 32.0 °F 26.4 °F 19.4 °F 60% 29.85 in 10.0 mi South 5.8 mph - N/A   Partly Cloudy
9:15 PM 32.0 °F 25.6 °F 19.4 °F 60% 29.84 in 10.0 mi South 6.9 mph - N/A   Clear
9:35 PM 33.8 °F 25.3 °F 19.4 °F 56% 29.82 in 10.0 mi SSW 11.5 mph - N/A   Clear
9:55 PM 35.6 °F 28.6 °F 21.2 °F 56% 29.83 in 10.0 mi SSW 9.2 mph - N/A   Clear
10:15 PM 37.4 °F 31.4 °F 21.2 °F 52% 29.84 in 10.0 mi WSW 8.1 mph - N/A   Clear
10:35 PM 37.4 °F 30.3 °F 21.2 °F 52% 29.84 in 10.0 mi WSW 10.4 mph - N/A   Clear
10:55 PM 37.4 °F 30.3 °F 21.2 °F 52% 29.83 in 10.0 mi WSW 10.4 mph - N/A   Partly Cloudy
11:15 PM 37.4 °F 30.8 °F 21.2 °F 52% 29.83 in 10.0 mi West 9.2 mph - N/A   Unknown
11:35 PM 39.2 °F 33.0 °F 23.0 °F 52% 29.83 in 10.0 mi West 9.2 mph - N/A   Clear
11:55 PM 39.2 °F 33.0 °F 23.0 °F 52% 29.83 in 10.0 mi West 9.2 mph - N/A   Clear